Weather History for Fairfield, IL

Change the Weather History Date:

Monday, February 10, 2014

  Actual Average (KMVN) Record (KMVN)
Temperature  
Mean Temperature 12 °F -  
Max Temperature 19 °F 42 °F 64 °F (1999)
Min Temperature 5 °F 27 °F 3 °F (2011)
Degree Days  
Heating Degree Days 52    
Moisture  
Dew Point 2 °F    
Average Humidity 67    
Maximum Humidity 79    
Minimum Humidity 57    
Precipitation  
Precipitation 0.00 in - - ()
Sea Level Pressure  
Sea Level Pressure 30.42 in    
Wind  
Wind Speed 7 mph (North)    
Max Wind Speed 12 mph    
Max Gust Speed 16 mph    
Visibility 10 miles    
Events      
Averages and records for this station are not official NWS values.
T = Trace of Precipitation, MM = Missing Value Source: NWS Daily Summary

Daily Weather History Graph

Daily Weather History Graph

Search for Another Location

Airport:

Trip Planner

Search our weather history database for the weather conditions in past years. The results will help you decide how hot, cold, wet, or windy it might be!

Date:

Astronomy

Feb. 10, 2014 Rise Set
Actual Time 6:49 AM CST 5:26 PM CST
Civil Twilight 6:22 AM CST 5:53 PM CST
Nautical Twilight 5:51 AM CST 6:24 PM CST
Astronomical Twilight 5:20 AM CST 6:55 PM CST
Moon 1:56 PM CST (2/10) 3:41 AM CST (2/10)
Length of Visible Light 11h 31m
Length of Day
10h 36m
Waxing Gibbous, 85% of the Moon is Illuminated
Feb 10
Waxing Gibbous
Feb 14
Full
Feb 22
Last Quarter
Mar 1
New
Mar 8
First Quarter

Hourly Weather History & Observations

Time (CST) Temp. Windchill Dew Point Humidity Pressure Visibility Wind Dir Wind Speed Gust Speed Precip Events Conditions
12:15 AM 19.4 °F 10.4 °F 12.2 °F 74% 30.33 in 10.0 mi North 6.9 mph - N/A   Overcast
12:35 AM 19.4 °F 12.8 °F 12.2 °F 74% 30.33 in 10.0 mi North 4.6 mph - N/A   Overcast
12:55 AM 19.4 °F 10.4 °F 12.2 °F 74% 30.33 in 10.0 mi North 6.9 mph - N/A   Unknown
1:15 AM 19.4 °F 12.8 °F 12.2 °F 74% 30.34 in 10.0 mi North 4.6 mph - N/A   Unknown
1:35 AM 19.4 °F 10.4 °F 10.4 °F 68% 30.34 in 10.0 mi North 6.9 mph - N/A   Overcast
1:55 AM 19.4 °F 8.6 °F 10.4 °F 68% 30.33 in 10.0 mi North 9.2 mph - N/A   Overcast
2:15 AM 19.4 °F 9.5 °F 10.4 °F 68% 30.34 in 10.0 mi North 8.1 mph - N/A   Overcast
2:35 AM 17.6 °F 5.0 °F 10.4 °F 73% 30.33 in 10.0 mi North 11.5 mph - N/A   Overcast
2:55 AM 17.6 °F 5.0 °F 10.4 °F 73% 30.33 in 10.0 mi North 11.5 mph 16.1 mph N/A   Overcast
3:15 AM 15.8 °F 4.2 °F 8.6 °F 73% 30.32 in 10.0 mi NNW 9.2 mph - N/A   Overcast
3:35 AM 15.8 °F 7.2 °F 8.6 °F 73% 30.34 in 10.0 mi NNW 5.8 mph - N/A   Overcast
3:55 AM 15.8 °F 6.1 °F 8.6 °F 73% 30.35 in 10.0 mi NNW 6.9 mph - N/A   Overcast
4:15 AM 14.0 °F 3.9 °F 8.6 °F 79% 30.36 in 10.0 mi NNW 6.9 mph - N/A   Overcast
4:35 AM 12.2 °F 2.9 °F 6.8 °F 79% 30.37 in 10.0 mi NNW 5.8 mph - N/A   Overcast
4:55 AM 12.2 °F 2.9 °F 6.8 °F 79% 30.39 in 10.0 mi NNW 5.8 mph - N/A   Scattered Clouds
5:15 AM 12.2 °F 0.7 °F 3.2 °F 67% 30.39 in 10.0 mi NNW 8.1 mph - N/A   Clear
5:35 AM 10.4 °F -1.5 °F 3.2 °F 73% 30.39 in 10.0 mi North 8.1 mph - N/A   Mostly Cloudy
5:55 AM 10.4 °F -1.5 °F 3.2 °F 73% 30.40 in 10.0 mi NNW 8.1 mph - N/A   Overcast
6:15 AM 10.4 °F -1.5 °F 1.4 °F 67% 30.40 in 10.0 mi NNW 8.1 mph - N/A   Scattered Clouds
6:35 AM 10.4 °F -0.4 °F 1.4 °F 67% 30.40 in 10.0 mi NNW 6.9 mph - N/A   Scattered Clouds
6:55 AM 8.6 °F 0.1 °F 1.4 °F 73% 30.42 in 10.0 mi NNW 4.6 mph - N/A   Scattered Clouds
7:15 AM 8.6 °F 2.0 °F 1.4 °F 73% 30.41 in 10.0 mi NNW 3.5 mph - N/A   Clear
7:35 AM 8.6 °F - 1.4 °F 73% 30.42 in 10.0 mi Calm Calm - N/A   Clear
7:55 AM 8.6 °F -2.6 °F 1.4 °F 73% 30.43 in 10.0 mi North 6.9 mph - N/A   Clear
8:15 AM 8.6 °F -1.3 °F 1.4 °F 73% 30.44 in 10.0 mi NNW 5.8 mph - N/A   Clear
8:35 AM 8.6 °F -2.6 °F -0.4 °F 67% 30.44 in 10.0 mi NNW 6.9 mph - N/A   Clear
8:55 AM 8.6 °F -2.6 °F -0.4 °F 67% 30.45 in 10.0 mi NNW 6.9 mph - N/A   Clear
9:15 AM 8.6 °F -2.6 °F -0.4 °F 67% 30.45 in 10.0 mi NNW 6.9 mph - N/A   Clear
9:35 AM 8.6 °F -1.3 °F -0.4 °F 67% 30.46 in 10.0 mi NNW 5.8 mph - N/A   Clear
9:55 AM 8.6 °F -3.7 °F -0.4 °F 67% 30.46 in 10.0 mi North 8.1 mph - N/A   Clear
10:15 AM 8.6 °F -4.7 °F -0.4 °F 67% 30.46 in 10.0 mi North 9.2 mph - N/A   Clear
10:35 AM 8.6 °F -3.7 °F -0.4 °F 67% 30.46 in 10.0 mi NNW 8.1 mph - N/A   Unknown
10:55 AM 8.6 °F -1.3 °F -0.4 °F 67% 30.46 in 10.0 mi NNW 5.8 mph - N/A   Unknown
11:15 AM 10.4 °F 0.8 °F -0.4 °F 62% 30.46 in 10.0 mi NNW 5.8 mph - N/A   Unknown
11:35 AM 10.4 °F -2.4 °F 1.4 °F 67% 30.45 in 10.0 mi North 9.2 mph - N/A   Clear
11:55 AM 10.4 °F -2.4 °F 1.4 °F 67% 30.44 in 10.0 mi North 9.2 mph - N/A   Clear
12:15 PM 10.4 °F -1.5 °F 1.4 °F 67% 30.43 in 10.0 mi North 8.1 mph - N/A   Clear
12:35 PM 12.2 °F 1.7 °F 1.4 °F 62% 30.43 in 10.0 mi NNW 6.9 mph - N/A   Clear
12:55 PM 12.2 °F 0.7 °F 1.4 °F 62% 30.43 in 10.0 mi NNW 8.1 mph - N/A   Clear
1:15 PM 12.2 °F 0.7 °F 1.4 °F 62% 30.41 in 10.0 mi North 8.1 mph - N/A   Clear
1:35 PM 12.2 °F 2.9 °F 1.4 °F 62% 30.41 in 10.0 mi NNW 5.8 mph - N/A   Clear
1:55 PM 12.2 °F 0.7 °F 1.4 °F 62% 30.41 in 10.0 mi North 8.1 mph - N/A   Clear
2:15 PM 14.0 °F 2.9 °F 1.4 °F 57% 30.42 in 10.0 mi North 8.1 mph - N/A   Clear
2:35 PM 14.0 °F 5.1 °F 1.4 °F 57% 30.41 in 10.0 mi North 5.8 mph - N/A   Clear
2:55 PM 14.0 °F 3.9 °F 1.4 °F 57% 30.40 in 10.0 mi North 6.9 mph - N/A   Clear
3:15 PM 14.0 °F 5.1 °F 1.4 °F 57% 30.42 in 10.0 mi North 5.8 mph - N/A   Clear
3:35 PM 14.0 °F 2.9 °F 1.4 °F 57% 30.42 in 10.0 mi NNW 8.1 mph - N/A   Clear
3:55 PM 14.0 °F 5.1 °F 1.4 °F 57% 30.41 in 10.0 mi North 5.8 mph - N/A   Clear
4:15 PM 14.0 °F 3.9 °F 1.4 °F 57% 30.43 in 10.0 mi NNW 6.9 mph - N/A   Clear
4:35 PM 14.0 °F 2.9 °F 1.4 °F 57% 30.43 in 10.0 mi North 8.1 mph - N/A   Clear
4:55 PM 12.2 °F 1.7 °F 1.4 °F 62% 30.43 in 10.0 mi NNE 6.9 mph - N/A   Clear
5:15 PM 12.2 °F -0.2 °F 1.4 °F 62% 30.44 in 10.0 mi North 9.2 mph - N/A   Clear
5:35 PM 12.2 °F 0.7 °F 1.4 °F 62% 30.45 in 10.0 mi North 8.1 mph - N/A   Clear
5:55 PM 10.4 °F 0.8 °F -0.4 °F 62% 30.46 in 10.0 mi North 5.8 mph - N/A   Unknown
6:15 PM 10.4 °F -0.4 °F -0.4 °F 62% 30.46 in 10.0 mi North 6.9 mph - N/A   Unknown
6:35 PM 8.6 °F -2.6 °F -0.4 °F 67% 30.45 in 10.0 mi North 6.9 mph - N/A   Clear
6:55 PM 8.6 °F -2.6 °F -0.4 °F 67% 30.45 in 10.0 mi North 6.9 mph - N/A   Clear
7:15 PM 8.6 °F -2.6 °F -2.2 °F 62% 30.45 in 10.0 mi North 6.9 mph - N/A   Clear
7:35 PM 8.6 °F -2.6 °F -2.2 °F 62% 30.46 in 10.0 mi North 6.9 mph - N/A   Clear
7:55 PM 6.8 °F -2.0 °F -2.2 °F 67% 30.46 in 10.0 mi North 4.6 mph - N/A   Clear
8:15 PM 6.8 °F -4.8 °F -2.2 °F 67% 30.46 in 10.0 mi North 6.9 mph - N/A   Unknown
8:35 PM 6.8 °F -4.8 °F -2.2 °F 67% 30.47 in 10.0 mi North 6.9 mph - N/A   Clear
8:55 PM 6.8 °F -7.8 °F -2.2 °F 67% 30.46 in 10.0 mi North 10.4 mph - N/A   Clear
9:15 PM 6.8 °F -2.0 °F -2.2 °F 67% 30.47 in 10.0 mi NNW 4.6 mph - N/A   Clear
9:35 PM 6.8 °F -0.1 °F -2.2 °F 67% 30.48 in 10.0 mi NNW 3.5 mph - N/A   Clear
9:55 PM 6.8 °F - -2.2 °F 67% 30.48 in 10.0 mi Calm Calm - N/A   Unknown
10:15 PM 6.8 °F -2.0 °F -2.2 °F 67% 30.48 in 10.0 mi NNW 4.6 mph - N/A   Unknown
10:35 PM 6.8 °F -4.8 °F -2.2 °F 67% 30.48 in 10.0 mi North 6.9 mph - N/A   Clear
10:55 PM 6.8 °F -3.5 °F -2.2 °F 67% 30.47 in 10.0 mi North 5.8 mph - N/A   Clear
11:15 PM 6.8 °F -4.8 °F -2.2 °F 67% 30.46 in 10.0 mi North 6.9 mph - N/A   Clear
11:35 PM 6.8 °F -4.8 °F -2.2 °F 67% 30.46 in 10.0 mi North 6.9 mph - N/A   Clear
11:55 PM 5.0 °F -8.1 °F -2.2 °F 72% 30.46 in 10.0 mi North 8.1 mph - N/A   Clear